User: anonymous   Login
Location: Unspecified
(0.0000°N, 0.0000°E)
Time: 16:24:36
(UTC+00:00)
Language:

STARS - Orbit

View from above orbital plane
View from above orbital plane
View from above satellite
View from above satellite

Ground track
Ground track

The orbit data is extracted from the following two-line orbital elements,

1 33498U 09002G   19346.87256294 +.00000168 +00000-0 +30317-4 0  9997
2 33498 098.2853 201.6044 0010278 326.2806 033.7750 14.79063248585777
Epoch (UTC): 12 December 2019 20:56:29
Eccentricity: 0.0010278
inclination: 98.2853°
perigee height: 625 km
apogee height: 639 km
right ascension of ascending node: 201.6044°
argument of perigee: 326.2806°
revolutions per day: 14.79063248
mean anomaly at epoch: 33.7750°
orbit number at epoch: 58577

The dashed part of the orbit path shows where the satellite is in the earth's shadow,  

DLR